EW4595 Weather Reports


Display with metric or nautical units.
time (UTC)temp
F
wind
direction
speed
MPH
gust
MPH
rain 1hr
in
rain 24hr
in
rain mn
in
humidity
%
barometer
mb
20210803115104 45 30 1.0 4.0 0.00 0.00 0.00 84 1028.0
20210803115004 44 29 2.0 4.0 0.00 0.00 0.00 84 1028.1
20210803114704 44 32 2.0 4.0 0.00 0.00 0.00 85 1028.0
20210803113804 44 29 1.0 2.0 0.00 0.00 0.00 85 1028.0
20210803113704 44 27 1.0 4.0 0.00 0.00 0.00 85 1027.8
20210803112306 43 49 2.0 4.0 0.00 0.00 0.00 89 1027.7
20210803112004 42 63 2.0 4.0 0.00 0.00 0.00 90 1027.8
20210803111904 42 68 0.0 4.0 0.00 0.00 0.00 90 1027.5
20210803111704 42 72 1.0 4.0 0.00 0.00 0.00 90 1027.9
20210803111604 42 70 1.0 4.0 0.00 0.00 0.00 90 1027.6
20210803111304 42 66 1.0 4.0 0.00 0.00 0.00 90 1027.6
20210803111004 42 55 2.0 4.0 0.00 0.00 0.00 90 1027.7
20210803110804 42 50 2.0 4.0 0.00 0.00 0.00 89 1027.6
20210803110304 42 53 2.0 2.0 0.00 0.00 0.00 90 1027.6
20210803110104 42 54 1.0 2.0 0.00 0.00 0.00 90 1027.5
20210803105004 42 56 1.0 4.0 0.00 0.00 0.00 90 1027.2
20210803104204 42 62 1.0 2.0 0.00 0.00 0.00 90 1027.6
20210803103504 42 67 1.0 2.0 0.00 0.00 0.00 90 1027.1
20210803103204 42 67 1.0 2.0 0.00 0.00 0.00 90 1027.1
20210803102804 42 73 1.0 2.0 0.00 0.00 0.00 90 1027.0
20210803102604 42 74 1.0 2.0 0.00 0.00 0.00 90 1027.0
20210803102104 42 68 1.0 2.0 0.00 0.00 0.00 90 1027.2
20210803101904 42 66 1.0 2.0 0.00 0.00 0.00 89 1027.3
20210803101604 42 59 1.0 2.0 0.00 0.00 0.00 89 1026.8
20210803101404 42 58 1.0 2.0 0.00 0.00 0.00 89 1027.1
20210803100904 42 55 1.0 2.0 0.00 0.00 0.00 89 1026.9
20210803100604 42 59 1.0 2.0 0.00 0.00 0.00 89 1027.0
20210803100204 42 63 1.0 2.0 0.00 0.00 0.00 89 1027.0
20210803100004 43 60 0.0 2.0 0.00 0.00 0.00 89 1027.0
20210803095904 43 59 0.0 2.0 0.00 0.00 0.00 89 1026.8
20210803095404 43 50 1.0 4.0 0.00 0.00 0.00 88 1026.8
20210803094604 43 48 2.0 4.0 0.00 0.00 0.00 87 1026.8
20210803094404 43 44 1.0 4.0 0.00 0.00 0.00 87 1026.8
20210803093304 44 26 2.0 4.0 0.00 0.00 0.00 87 1026.5
20210803092804 44 29 2.0 4.0 0.00 0.00 0.00 87 1026.4
20210803092604 44 39 2.0 4.0 0.00 0.00 0.00 86 1026.4
20210803092404 44 35 1.0 4.0 0.00 0.00 0.00 86 1026.4
20210803091504 44 32 2.0 4.0 0.00 0.00 0.00 86 1026.3
20210803091204 44 29 0.0 4.0 0.00 0.00 0.00 86 1026.2
20210803090604 44 30 1.0 6.0 0.00 0.00 0.00 86 1026.1
20210803090504 44 30 1.0 6.0 0.00 0.00 0.00 86 1026.0
20210803090204 44 34 0.0 6.0 0.00 0.00 0.00 86 1026.1
20210803090004 44 31 1.0 6.0 0.00 0.00 0.00 85 1026.0
20210803085704 44 23 2.0 4.0 0.00 0.00 0.00 85 1026.0
20210803085604 44 22 0.0 4.0 0.00 0.00 0.00 85 1026.0
20210803085504 44 21 1.0 4.0 0.00 0.00 0.00 85 1026.0
20210803085404 44 17 1.0 4.0 0.00 0.00 0.00 85 1025.9
20210803085305 44 17 2.0 4.0 0.00 0.00 0.00 85 1026.2
20210803085104 44 16 2.0 4.0 0.00 0.00 0.00 85 1025.9
20210803084604 44 17 3.0 4.0 0.00 0.00 0.00 84 1026.1
20210803084304 44 22 2.0 4.0 0.00 0.00 0.00 84 1026.1
20210803084004 44 22 1.0 4.0 0.00 0.00 0.00 84 1026.2
20210803083704 44 25 1.0 4.0 0.00 0.00 0.00 84 1026.0
20210803082704 44 9 2.0 4.0 0.00 0.00 0.00 85 1025.8
20210803082004 44 13 1.0 4.0 0.00 0.00 0.00 85 1026.1
20210803081904 44 15 2.0 4.0 0.00 0.00 0.00 85 1026.2
20210803081504 44 23 2.0 4.0 0.00 0.00 0.00 85 1026.3
20210803081404 44 22 1.0 4.0 0.00 0.00 0.00 85 1026.3
20210803081104 44 28 1.0 2.0 0.00 0.00 0.00 85 1026.2
20210803080404 44 11 1.0 4.0 0.00 0.00 0.00 84 1026.1
20210803075804 44 14 1.0 4.0 0.00 0.00 0.00 84 1026.1
20210803075704 44 17 0.0 4.0 0.00 0.00 0.00 84 1026.4
20210803075305 44 21 0.0 4.0 0.00 0.00 0.00 83 1026.4
20210803075104 44 20 2.0 4.0 0.00 0.00 0.00 83 1026.3
20210803074604 44 15 2.0 4.0 0.00 0.00 0.00 83 1026.4
20210803074504 44 12 2.0 6.0 0.00 0.00 0.00 83 1026.4
20210803074304 44 8 2.0 6.0 0.00 0.00 0.00 83 1026.1
20210803074204 44 7 2.0 6.0 0.00 0.00 0.00 82 1026.3
20210803073804 44 7 1.0 6.0 0.00 0.00 0.00 82 1026.2
20210803073704 44 8 2.0 6.0 0.00 0.00 0.00 82 1026.4
20210803073604 44 7 2.0 6.0 0.00 0.00 0.00 81 1026.1
20210803073104 45 14 2.0 6.0 0.00 0.00 0.00 81 1026.4
20210803072305 45 27 2.0 7.0 0.00 0.00 0.00 79 1026.3
20210803072004 45 27 2.0 7.0 0.00 0.00 0.00 79 1026.3
20210803071904 45 25 2.0 7.0 0.00 0.00 0.00 79 1026.3
20210803071204 45 29 1.0 6.0 0.00 0.00 0.00 78 1025.9
20210803071104 45 27 3.0 6.0 0.00 0.00 0.00 78 1026.1
20210803070704 45 27 3.0 6.0 0.00 0.00 0.00 78 1026.1
20210803065804 45 18 1.0 4.0 0.00 0.00 0.00 78 1026.3
20210803065104 45 23 2.0 4.0 0.00 0.00 0.00 77 1026.2
20210803064804 46 24 2.0 7.0 0.00 0.00 0.00 77 1026.3
20210803064504 46 24 0.0 7.0 0.00 0.00 0.00 77 1026.2
20210803064104 46 33 2.0 7.0 0.00 0.00 0.00 76 1026.3
20210803063903 46 33 2.0 7.0 0.00 0.00 0.00 76 1026.3
20210803063704 46 34 2.0 6.0 0.00 0.00 0.00 76 1026.2
20210803063403 46 30 2.0 6.0 0.00 0.00 0.00 75 1026.3
20210803062703 46 17 2.0 7.0 0.00 0.00 0.00 75 1026.3
20210803062603 46 17 4.0 7.0 0.00 0.00 0.00 75 1026.3
20210803062204 47 25 4.0 7.0 0.00 0.00 0.00 75 1026.2
20210803061903 47 24 4.0 6.0 0.00 0.00 0.00 75 1026.4
20210803061103 47 17 2.0 6.0 0.00 0.00 0.00 75 1026.5
20210803060803 47 12 2.0 7.0 0.00 0.00 0.00 74 1026.4
20210803060004 47 21 3.0 7.0 0.00 0.00 0.00 74 1026.5
20210803055403 47 28 2.0 6.0 0.00 0.00 0.00 73 1026.4
20210803054903 47 35 2.0 6.0 0.00 0.00 0.00 73 1026.3
20210803054403 47 41 4.0 4.0 0.00 0.00 0.00 73 1026.4
20210803054003 47 39 2.0 4.0 0.00 0.00 0.00 73 1026.4
20210803053803 47 33 2.0 4.0 0.00 0.00 0.00 73 1026.3
20210803053303 47 27 2.0 4.0 0.00 0.00 0.00 73 1026.0
20210803052803 47 25 1.0 4.0 0.00 0.00 0.00 73 1026.4
20210803052603 47 33 2.0 4.0 0.00 0.00 0.00 73 1026.3
20210803052203 47 38 1.0 4.0 0.00 0.00 0.00 74 1026.3
20210803052003 47 38 2.0 4.0 0.00 0.00 0.00 74 1026.5
20210803051803 47 36 2.0 4.0 0.00 0.00 0.00 74 1026.5
20210803051703 48 28 3.0 4.0 0.00 0.00 0.00 74 1026.3
20210803051503 47 21 1.0 4.0 0.00 0.00 0.00 74 1026.6
20210803051403 47 22 1.0 4.0 0.00 0.00 0.00 74 1026.6
20210803051303 47 24 1.0 4.0 0.00 0.00 0.00 74 1026.4
20210803050903 48 30 2.0 4.0 0.00 0.00 0.00 74 1026.6
20210803050803 48 31 2.0 4.0 0.00 0.00 0.00 74 1026.3
20210803045903 48 21 1.0 4.0 0.00 0.00 0.00 75 1026.6
20210803045803 48 23 2.0 4.0 0.00 0.00 0.00 75 1026.5
20210803045503 47 26 2.0 4.0 0.00 0.00 0.00 75 1026.7
20210803044803 47 19 2.0 4.0 0.00 0.00 0.00 76 1026.6
20210803044103 47 14 2.0 4.0 0.00 0.00 0.00 75 1026.6
20210803044003 47 15 2.0 4.0 0.00 0.00 0.00 75 1026.7
20210803043603 47 27 2.0 4.0 0.00 0.00 0.00 74 1026.7
20210803043403 47 28 1.0 4.0 0.00 0.00 0.00 74 1026.9
20210803043103 47 25 1.0 4.0 0.00 0.00 0.00 74 1027.0
20210803042503 47 20 2.0 4.0 0.00 0.00 0.00 73 1027.0
20210803042305 47 14 1.0 4.0 0.00 0.00 0.00 73 1027.2
20210803042203 47 16 2.0 4.0 0.00 0.00 0.00 73 1027.1
20210803041203 48 36 2.0 4.0 0.00 0.00 0.00 72 1027.1
20210803040703 48 34 2.0 4.0 0.00 0.00 0.00 71 1027.4
20210803040403 48 31 3.0 4.0 0.00 0.00 0.00 71 1027.4
20210803034903 49 11 2.0 9.0 0.00 0.00 0.00 70 1027.2
20210803034703 49 16 3.0 9.0 0.00 0.00 0.00 69 1027.3
20210803034604 49 18 2.0 9.0 0.00 0.00 0.00 69 1027.2
20210803034403 49 21 0.0 9.0 0.00 0.00 0.00 69 1027.2
20210803034204 49 16 2.0 9.0 0.00 0.00 0.00 68 1027.5
20210803034103 50 14 2.0 9.0 0.00 0.00 0.00 68 1027.2
20210803034003 50 12 4.0 9.0 0.00 0.00 0.00 67 1027.3
20210803033403 50 16 2.0 9.0 0.00 0.00 0.00 68 1027.1
20210803033003 50 19 2.0 9.0 0.00 0.00 0.00 67 1027.4
20210803032903 50 18 4.0 9.0 0.00 0.00 0.00 67 1027.1
20210803032703 51 14 3.0 8.0 0.00 0.00 0.00 66 1027.2
20210803032603 51 16 4.0 8.0 0.00 0.00 0.00 66 1027.2
20210803032503 51 18 4.0 8.0 0.00 0.00 0.00 66 1027.2
20210803032003 51 22 2.0 8.0 0.00 0.00 0.00 67 1027.2
20210803031503 51 22 2.0 8.0 0.00 0.00 0.00 66 1027.1
20210803031403 51 21 3.0 8.0 0.00 0.00 0.00 66 1027.1
20210803031103 51 21 2.0 8.0 0.00 0.00 0.00 66 1027.0
20210803031003 51 18 4.0 8.0 0.00 0.00 0.00 66 1027.3
20210803025703 52 16 3.0 8.0 0.00 0.00 0.00 65 1027.0
20210803025603 51 14 3.0 8.0 0.00 0.00 0.00 65 1027.1
20210803025503 51 12 4.0 8.0 0.00 0.00 0.00 66 1027.1
20210803025403 51 8 4.0 8.0 0.00 0.00 0.00 66 1027.0
20210803025103 51 7 3.0 8.0 0.00 0.00 0.00 68 1027.0
20210803024803 51 7 2.0 8.0 0.00 0.00 0.00 68 1026.8
20210803024303 51 13 3.0 6.0 0.00 0.00 0.00 68 1026.9
20210803024203 51 14 2.0 4.0 0.00 0.00 0.00 69 1027.1
20210803024003 51 16 2.0 4.0 0.00 0.00 0.00 69 1026.8
20210803023703 51 22 2.0 6.0 0.00 0.00 0.00 69 1027.0
20210803023203 51 25 2.0 6.0 0.00 0.00 0.00 69 1026.8
20210803022903 51 26 3.0 6.0 0.00 0.00 0.00 69 1027.1
20210803022703 51 25 1.0 4.0 0.00 0.00 0.00 69 1026.8
20210803022203 51 18 2.0 4.0 0.00 0.00 0.00 68 1026.5
20210803022103 51 16 3.0 4.0 0.00 0.00 0.00 68 1026.6
20210803021803 51 8 2.0 4.0 0.00 0.00 0.00 67 1026.8
20210803021603 51 6 2.0 4.0 0.00 0.00 0.00 67 1026.8
20210803021503 51 6 2.0 4.0 0.00 0.00 0.00 67 1026.7
20210803020903 51 12 3.0 4.0 0.00 0.00 0.00 66 1026.9
20210803020803 51 9 3.0 4.0 0.00 0.00 0.00 66 1026.8
20210803020603 51 7 2.0 4.0 0.00 0.00 0.00 66 1026.7
20210803020503 51 7 2.0 4.0 0.00 0.00 0.00 66 1026.5
20210803020304 51 3 1.0 4.0 0.00 0.00 0.00 66 1026.8
20210803020104 51 3 1.0 4.0 0.00 0.00 0.00 66 1026.9
20210803015904 51 4 2.0 4.0 0.00 0.00 0.00 65 1026.7
20210803015804 51 12 2.0 4.0 0.00 0.00 0.00 65 1026.8
20210803015204 51 25 3.0 6.0 0.00 0.00 0.00 64 1026.6
20210803015004 51 29 2.0 6.0 0.00 0.00 0.00 63 1026.6
20210803014904 51 26 2.0 6.0 0.00 0.00 0.00 63 1026.5
20210803014704 51 16 2.0 6.0 0.00 0.00 0.00 63 1026.9
20210803013904 51 6 4.0 7.0 0.00 0.00 0.00 62 1026.6
20210803013504 51 6 4.0 7.0 0.00 0.00 0.00 61 1026.8
20210803013304 51 360 3.0 7.0 0.00 0.00 0.00 61 1026.7
20210803013204 51 1 3.0 9.0 0.00 0.00 0.00 61 1026.9
20210803012804 52 3 3.0 9.0 0.00 0.00 0.00 60 1026.8
20210803012704 53 4 2.0 9.0 0.00 0.00 0.00 59 1026.7
20210803012604 53 6 4.0 9.0 0.00 0.00 0.00 59 1026.7
20210803011904 53 15 2.0 6.0 0.00 0.00 0.00 60 1026.4
20210803011504 53 29 2.0 4.0 0.00 0.00 0.00 60 1026.7
20210803011304 53 35 2.0 4.0 0.00 0.00 0.00 60 1026.8
20210803011204 53 35 2.0 4.0 0.00 0.00 0.00 60 1026.5
20210803011104 53 34 2.0 4.0 0.00 0.00 0.00 60 1026.8
20210803010704 53 32 0.0 4.0 0.00 0.00 0.00 60 1026.8
20210803010404 53 32 2.0 4.0 0.00 0.00 0.00 59 1026.7
20210803005904 53 33 2.0 4.0 0.00 0.00 0.00 58 1026.7
20210803005404 53 27 2.0 4.0 0.00 0.00 0.00 58 1026.8
20210803005004 54 26 2.0 4.0 0.00 0.00 0.00 57 1026.7
20210803004804 54 23 3.0 4.0 0.00 0.00 0.00 57 1026.7
20210803004504 54 23 2.0 4.0 0.00 0.00 0.00 57 1026.8
20210803004404 54 23 2.0 4.0 0.00 0.00 0.00 57 1026.9
20210803004304 54 23 2.0 4.0 0.00 0.00 0.00 57 1026.5
20210803004104 54 21 1.0 4.0 0.00 0.00 0.00 57 1026.5
20210803003704 54 13 2.0 4.0 0.00 0.00 0.00 57 1026.7
20210803003104 54 21 2.0 4.0 0.00 0.00 0.00 57 1026.5
20210803003004 54 25 2.0 4.0 0.00 0.00 0.00 58 1026.7
20210803002604 54 32 2.0 6.0 0.00 0.00 0.00 57 1026.5
20210803002404 54 29 2.0 6.0 0.00 0.00 0.00 57 1026.8
20210803002104 54 29 2.0 6.0 0.00 0.00 0.00 57 1026.5
20210803001504 55 29 1.0 4.0 0.00 0.00 0.00 57 1026.6
20210803001204 55 27 1.0 4.0 0.00 0.00 0.00 56 1026.7
20210803000804 55 24 2.0 4.0 0.00 0.00 0.00 56 1026.5
20210803000504 55 15 1.0 4.0 0.00 0.00 0.00 57 1026.7
20210803000104 55 21 2.0 4.0 0.00 0.00 0.00 56 1026.5
20210802235804 55 24 2.0 4.0 0.00 0.00 0.00 57 1026.7
20210802235504 55 31 2.0 4.0 0.00 0.00 0.00 57 1026.7
20210802235404 55 28 2.0 4.0 0.00 0.00 0.00 57 1026.7
20210802234704 55 25 0.0 2.0 0.00 0.00 0.00 58 1026.7
20210802234104 55 23 2.0 2.0 0.00 0.00 0.00 57 1026.7
20210802234004 55 22 1.0 2.0 0.00 0.00 0.00 57 1026.7
20210802233604 55 22 1.0 2.0 0.00 0.00 0.00 57 1026.4
20210802232604 56 26 2.0 4.0 0.00 0.00 0.00 55 1026.8
20210802232504 56 27 1.0 4.0 0.00 0.00 0.00 55 1026.8
20210802232404 56 30 1.0 4.0 0.00 0.00 0.00 55 1026.6
20210802232305 56 30 0.0 4.0 0.00 0.00 0.00 55 1026.9
20210802231504 56 25 2.0 4.0 0.00 0.00 0.00 53 1026.8
20210802231304 56 28 2.0 4.0 0.00 0.00 0.00 53 1026.7
20210802230904 57 40 3.0 4.0 0.00 0.00 0.00 52 1026.9
20210802230004 57 50 1.0 4.0 0.00 0.00 0.00 52 1026.7
20210802225904 57 48 2.0 4.0 0.00 0.00 0.00 52 1026.8
20210802225804 57 43 2.0 4.0 0.00 0.00 0.00 52 1026.6
20210802224604 58 15 2.0 4.0 0.00 0.00 0.00 51 1026.7
20210802224204 58 15 2.0 4.0 0.00 0.00 0.00 51 1026.6
20210802223904 58 15 1.0 4.0 0.00 0.00 0.00 51 1026.8
20210802222804 58 21 0.0 4.0 0.00 0.00 0.00 52 1026.9
20210802222704 58 21 0.0 4.0 0.00 0.00 0.00 51 1026.7
20210802222404 58 13 1.0 2.0 0.00 0.00 0.00 52 1026.7
20210802222004 58 3 1.0 4.0 0.00 0.00 0.00 51 1026.7
20210802221704 58 358 0.0 4.0 0.00 0.00 0.00 51 1026.7
20210802221604 58 353 0.0 4.0 0.00 0.00 0.00 51 1026.6
20210802221104 59 350 2.0 4.0 0.00 0.00 0.00 50 1026.3
20210802220904 59 351 2.0 4.0 0.00 0.00 0.00 50 1026.5
20210802220804 59 351 2.0 4.0 0.00 0.00 0.00 50 1026.5
20210802220504 59 5 2.0 4.0 0.00 0.00 0.00 49 1026.5
20210802220204 59 8 2.0 4.0 0.00 0.00 0.00 49 1026.4
20210802220004 59 20 2.0 2.0 0.00 0.00 0.00 49 1026.5
20210802215404 60 37 0.0 2.0 0.00 0.00 0.00 49 1026.3
20210802214904 60 31 2.0 4.0 0.00 0.00 0.00 48 1026.4
20210802214404 60 27 2.0 4.0 0.00 0.00 0.00 47 1026.4
20210802214204 60 32 1.0 4.0 0.00 0.00 0.00 47 1026.5
20210802213504 60 56 2.0 4.0 0.00 0.00 0.00 46 1026.6
20210802213404 61 56 3.0 4.0 0.00 0.00 0.00 46 1026.5
20210802212704 61 35 2.0 4.0 0.00 0.00 0.00 46 1026.2
20210802212404 61 38 2.0 4.0 0.00 0.00 0.00 46 1026.4
20210802212204 62 38 2.0 4.0 0.00 0.00 0.00 45 1026.3
20210802212004 62 38 0.0 4.0 0.00 0.00 0.00 45 1026.4
20210802211904 62 37 1.0 4.0 0.00 0.00 0.00 45 1026.4
20210802211604 62 35 2.0 4.0 0.00 0.00 0.00 45 1026.4
20210802211404 62 33 2.0 4.0 0.00 0.00 0.00 44 1026.2
20210802211004 63 32 2.0 6.0 0.00 0.00 0.00 44 1026.3
20210802210704 63 35 1.0 6.0 0.00 0.00 0.00 44 1026.4
20210802210604 63 35 2.0 6.0 0.00 0.00 0.00 44 1026.3
20210802210504 63 36 2.0 6.0 0.00 0.00 0.00 43 1026.3
20210802210404 63 34 2.0 6.0 0.00 0.00 0.00 43 1026.5
20210802210304 63 32 3.0 6.0 0.00 0.00 0.00 43 1026.3
20210802210004 63 37 3.0 6.0 0.00 0.00 0.00 43 1026.4
20210802205904 63 36 2.0 6.0 0.00 0.00 0.00 43 1026.3
20210802205305 64 30 3.0 6.0 0.00 0.00 0.00 42 1026.3
20210802205004 64 25 2.0 6.0 0.00 0.00 0.00 41 1026.4
20210802204904 64 28 2.0 8.0 0.00 0.00 0.00 41 1026.4
20210802204804 64 23 2.0 8.0 0.00 0.00 0.00 41 1026.3
20210802204504 64 29 4.0 8.0 0.00 0.00 0.00 40 1026.3
20210802204204 65 24 2.0 8.0 0.00 0.00 0.00 39 1026.3
20210802203904 64 13 4.0 8.0 0.00 0.00 0.00 38 1026.5
20210802203504 65 11 2.0 6.0 0.00 0.00 0.00 38 1026.4
20210802203204 65 9 2.0 6.0 0.00 0.00 0.00 38 1026.3
20210802203104 65 9 2.0 7.0 0.00 0.00 0.00 37 1026.3
20210802202804 65 15 1.0 7.0 0.00 0.00 0.00 37 1026.3
20210802202704 65 18 3.0 7.0 0.00 0.00 0.00 37 1026.4
20210802202604 65 19 3.0 7.0 0.00 0.00 0.00 36 1026.3
20210802202404 65 18 3.0 7.0 0.00 0.00 0.00 37 1026.5
20210802202204 65 23 2.0 7.0 0.00 0.00 0.00 36 1026.2
20210802201804 65 6 2.0 7.0 0.00 0.00 0.00 36 1026.2
20210802201704 65 2 4.0 7.0 0.00 0.00 0.00 37 1026.3
20210802201504 67 359 2.0 7.0 0.00 0.00 0.00 35 1026.4
20210802201304 66 354 2.0 7.0 0.00 0.00 0.00 36 1026.3
20210802200903 66 344 1.0 8.0 0.00 0.00 0.00 36 1026.3
20210802200804 65 344 2.0 8.0 0.00 0.00 0.00 36 1026.4
20210802200604 65 343 2.0 8.0 0.00 0.00 0.00 35 1026.4
20210802200504 65 342 2.0 8.0 0.00 0.00 0.00 36 1026.2
20210802200404 65 338 3.0 8.0 0.00 0.00 0.00 35 1026.2
20210802200304 65 336 4.0 8.0 0.00 0.00 0.00 35 1026.2
20210802200204 65 338 4.0 8.0 0.00 0.00 0.00 36 1026.2
20210802200104 65 341 4.0 9.0 0.00 0.00 0.00 36 1026.4
20210802195504 65 342 4.0 9.0 0.00 0.00 0.00 35 1026.2
20210802193604 65 348 4.0 8.0 0.00 0.00 0.00 35 1026.5
20210802193204 65 353 4.0 8.0 0.00 0.00 0.00 34 1026.4
20210802192804 65 348 7.0 8.0 0.00 0.00 0.00 33 1026.2
20210802192305 66 350 3.0 7.0 0.00 0.00 0.00 33 1026.5
20210802191704 65 341 3.0 8.0 0.00 0.00 0.00 33 1026.6
20210802191504 65 340 3.0 8.0 0.00 0.00 0.00 32 1026.7
20210802191404 66 341 4.0 8.0 0.00 0.00 0.00 32 1026.8
20210802191204 66 339 4.0 8.0 0.00 0.00 0.00 32 1026.7
20210802191004 66 346 4.0 8.0 0.00 0.00 0.00 32 1026.8
20210802190604 66 343 4.0 8.0 0.00 0.00 0.00 32 1026.9
20210802190404 65 347 2.0 8.0 0.00 0.00 0.00 32 1026.6
20210802190104 66 352 3.0 8.0 0.00 0.00 0.00 32 1026.6
20210802185904 66 352 5.0 8.0 0.00 0.00 0.00 32 1026.8
20210802185804 66 349 2.0 8.0 0.00 0.00 0.00 31 1026.9
20210802185504 66 346 2.0 7.0 0.00 0.00 0.00 30 1027.0
20210802185404 66 344 2.0 7.0 0.00 0.00 0.00 31 1026.8
20210802185306 66 340 2.0 8.0 0.00 0.00 0.00 32 1026.8
20210802184903 65 335 3.0 11.0 0.00 0.00 0.00 32 1026.9
20210802184704 65 334 4.0 11.0 0.00 0.00 0.00 32 1026.9
20210802184604 65 334 5.0 11.0 0.00 0.00 0.00 32 1026.9
20210802184304 65 339 5.0 11.0 0.00 0.00 0.00 32 1027.1
20210802184003 66 336 4.0 11.0 0.00 0.00 0.00 31 1026.9
20210802183403 65 330 4.0 9.0 0.00 0.00 0.00 31 1027.0
20210802183203 65 332 3.0 9.0 0.00 0.00 0.00 32 1026.9
20210802182004 65 343 5.0 8.0 0.00 0.00 0.00 32 1027.4
20210802181903 65 347 3.0 8.0 0.00 0.00 0.00 33 1027.3
20210802181703 65 350 4.0 9.0 0.00 0.00 0.00 32 1027.2
20210802181203 65 356 4.0 9.0 0.00 0.00 0.00 32 1027.5
20210802181103 65 5 5.0 9.0 0.00 0.00 0.00 33 1027.5
20210802180903 65 17 4.0 9.0 0.00 0.00 0.00 32 1027.6
20210802180103 66 359 2.0 8.0 0.00 0.00 0.00 33 1027.5
20210802175503 66 341 3.0 7.0 0.00 0.00 0.00 34 1027.7
20210802175203 65 342 3.0 7.0 0.00 0.00 0.00 35 1027.5
20210802175103 65 341 4.0 7.0 0.00 0.00 0.00 35 1027.6
20210802175003 66 344 4.0 7.0 0.00 0.00 0.00 34 1027.5
20210802174803 67 347 2.0 7.0 0.00 0.00 0.00 33 1027.5
20210802174703 67 348 2.0 7.0 0.00 0.00 0.00 34 1027.6
20210802174203 65 357 3.0 9.0 0.00 0.00 0.00 35 1027.8
20210802173803 65 8 2.0 9.0 0.00 0.00 0.00 36 1027.6
20210802173703 65 8 4.0 9.0 0.00 0.00 0.00 36 1027.7
20210802173403 65 19 5.0 9.0 0.00 0.00 0.00 36 1027.6
20210802173303 65 20 4.0 11.0 0.00 0.00 0.00 36 1027.7
20210802173203 66 11 3.0 11.0 0.00 0.00 0.00 35 1027.8
20210802172708 66 351 1.0 11.0 0.00 0.00 0.00 35 1027.7
20210802171903 64 351 4.0 9.0 0.00 0.00 0.00 37 1028.0
20210802171803 65 353 3.0 9.0 0.00 0.00 0.00 36 1028.0
20210802171703 65 355 3.0 9.0 0.00 0.00 0.00 36 1028.1
20210802171603 65 356 3.0 9.0 0.00 0.00 0.00 37 1028.2
20210802171504 64 359 2.0 9.0 0.00 0.00 0.00 36 1028.0
20210802170603 64 359 3.0 7.0 0.00 0.00 0.00 35 1028.2
20210802165503 65 346 4.0 8.0 0.00 0.00 0.00 36 1028.3
20210802165103 64 353 4.0 11.0 0.00 0.00 0.00 36 1028.4
20210802165003 63 356 4.0 11.0 0.00 0.00 0.00 37 1028.6
20210802164803 64 11 5.0 11.0 0.00 0.00 0.00 35 1028.7
20210802164603 64 19 3.0 11.0 0.00 0.00 0.00 36 1028.5
20210802163303 63 9 3.0 9.0 0.00 0.00 0.00 35 1028.8
20210802163003 63 8 4.0 9.0 0.00 0.00 0.00 35 1028.9
20210802162103 63 356 4.0 9.0 0.00 0.00 0.00 34 1028.8
20210802162003 63 350 3.0 9.0 0.00 0.00 0.00 34 1029.0
20210802161803 63 349 4.0 9.0 0.00 0.00 0.00 34 1028.9
20210802161703 63 350 6.0 9.0 0.00 0.00 0.00 35 1029.0
20210802161303 63 10 5.0 9.0 0.00 0.00 0.00 35 1029.1
20210802160903 63 8 2.0 9.0 0.00 0.00 0.00 36 1029.1
20210802160703 62 12 6.0 9.0 0.00 0.00 0.00 37 1029.0
20210802160603 63 8 4.0 9.0 0.00 0.00 0.00 36 1029.0
20210802160503 63 11 3.0 9.0 0.00 0.00 0.00 37 1029.2
20210802160103 63 5 3.0 9.0 0.00 0.00 0.00 37 1029.1
20210802160003 63 9 4.0 9.0 0.00 0.00 0.00 37 1029.1
20210802155603 63 24 3.0 8.0 0.00 0.00 0.00 37 1029.2
20210802155103 63 26 3.0 8.0 0.00 0.00 0.00 38 1029.2
20210802154803 63 18 4.0 8.0 0.00 0.00 0.00 38 1029.2
20210802154703 63 8 2.0 11.0 0.00 0.00 0.00 39 1029.2
20210802154403 62 356 4.0 11.0 0.00 0.00 0.00 40 1029.3
20210802153903 62 10 3.0 13.0 0.00 0.00 0.00 39 1029.4
20210802152903 62 9 5.0 11.0 0.00 0.00 0.00 40 1029.5
20210802152803 62 2 4.0 15.0 0.00 0.00 0.00 41 1029.5
20210802152603 61 357 4.0 15.0 0.00 0.00 0.00 41 1029.6
20210802152103 61 354 3.0 15.0 0.00 0.00 0.00 41 1029.5
20210802151503 61 11 4.0 8.0 0.00 0.00 0.00 46 1029.8
20210802151103 62 24 2.0 8.0 0.00 0.00 0.00 48 1029.7
20210802150903 61 16 4.0 8.0 0.00 0.00 0.00 50 1029.7
20210802150703 60 4 6.0 8.0 0.00 0.00 0.00 51 1029.9
20210802150603 60 8 4.0 7.0 0.00 0.00 0.00 51 1029.8
20210802150403 60 14 2.0 6.0 0.00 0.00 0.00 53 1029.9
20210802150303 60 12 4.0 6.0 0.00 0.00 0.00 53 1029.9
20210802150103 60 6 2.0 4.0 0.00 0.00 0.00 54 1029.9
20210802150003 60 5 2.0 4.0 0.00 0.00 0.00 54 1029.7
20210802145903 60 7 2.0 4.0 0.00 0.00 0.00 54 1030.0
20210802145403 60 355 2.0 4.0 0.00 0.00 0.00 55 1029.9
20210802145305 60 349 2.0 4.0 0.00 0.00 0.00 54 1030.1
20210802144803 61 345 0.0 4.0 0.00 0.00 0.00 55 1030.0
20210802144203 58 4 2.0 4.0 0.00 0.00 0.00 59 1030.1
20210802144103 58 12 2.0 4.0 0.00 0.00 0.00 59 1030.0
20210802143204 58 48 2.0 4.0 0.00 0.00 0.00 59 1030.1
20210802142704 58 35 0.0 4.0 0.00 0.00 0.00 62 1030.2
20210802142504 57 49 2.0 6.0 0.00 0.00 0.00 62 1030.2
20210802142404 56 47 2.0 6.0 0.00 0.00 0.00 63 1030.2
20210802142004 57 51 1.0 6.0 0.00 0.00 0.00 62 1030.4
20210802141804 56 46 1.0 6.0 0.00 0.00 0.00 63 1030.2
20210802141504 55 36 2.0 6.0 0.00 0.00 0.00 65 1030.2
20210802141104 54 40 2.0 6.0 0.00 0.00 0.00 66 1030.3
20210802140904 54 28 1.0 6.0 0.00 0.00 0.00 67 1030.3
20210802140704 54 48 2.0 4.0 0.00 0.00 0.00 65 1030.3
20210802140504 55 41 2.0 4.0 0.00 0.00 0.00 64 1030.3
20210802140304 54 33 1.0 4.0 0.00 0.00 0.00 66 1030.2
20210802140204 54 31 2.0 6.0 0.00 0.00 0.00 66 1030.2
20210802140005 54 30 2.0 6.0 0.00 0.00 0.00 67 1030.1
20210802135904 54 36 1.0 7.0 0.00 0.00 0.00 67 1030.3
20210802135604 52 35 2.0 7.0 0.00 0.00 0.00 70 1030.1
20210802135504 51 34 3.0 7.0 0.00 0.00 0.00 71 1030.0
20210802135306 51 33 3.0 7.0 0.00 0.00 0.00 70 1030.2
20210802134604 51 12 2.0 6.0 0.00 0.00 0.00 70 1030.2
20210802134504 51 8 2.0 6.0 0.00 0.00 0.00 71 1030.1
20210802134304 50 12 2.0 6.0 0.00 0.00 0.00 72 1030.1
20210802134004 50 14 4.0 6.0 0.00 0.00 0.00 72 1029.9
20210802133804 49 14 3.0 4.0 0.00 0.00 0.00 73 1029.9
20210802133604 49 19 2.0 4.0 0.00 0.00 0.00 73 1030.2
20210802132804 49 11 2.0 4.0 0.00 0.00 0.00 74 1030.1
20210802131604 48 44 3.0 4.0 0.00 0.00 0.00 74 1030.4
20210802130404 47 41 2.0 4.0 0.00 0.00 0.00 77 1030.3
20210802130104 47 46 2.0 4.0 0.00 0.00 0.00 77 1030.2
20210802125504 47 43 1.0 4.0 0.00 0.00 0.00 78 1030.1
20210802125305 47 37 2.0 6.0 0.00 0.00 0.00 77 1030.1
20210802124504 46 69 2.0 6.0 0.00 0.00 0.00 78 1029.9
20210802124404 46 75 3.0 6.0 0.00 0.00 0.00 77 1029.9
20210802124204 46 82 2.0 4.0 0.00 0.00 0.00 78 1030.0
20210802124004 46 84 1.0 4.0 0.00 0.00 0.00 78 1029.9
20210802123504 46 56 2.0 4.0 0.00 0.00 0.00 78 1029.9
20210802123404 46 52 1.0 4.0 0.00 0.00 0.00 78 1029.8
20210802123304 46 54 1.0 4.0 0.00 0.00 0.00 78 1029.9
20210802123004 46 39 1.0 6.0 0.00 0.00 0.00 79 1030.1
20210802122306 46 30 0.0 6.0 0.00 0.00 0.00 80 1030.1
20210802122204 45 28 1.0 6.0 0.00 0.00 0.00 81 1030.0
20210802121404 45 28 2.0 4.0 0.00 0.00 0.00 80 1030.0
20210802121304 45 33 1.0 4.0 0.00 0.00 0.00 80 1030.1
20210802121104 46 43 1.0 7.0 0.00 0.00 0.00 81 1030.1
20210802121004 45 45 1.0 7.0 0.00 0.00 0.00 81 1030.1
20210802120804 45 62 1.0 7.0 0.00 0.00 0.00 81 1030.1
20210802120404 45 80 2.0 7.0 0.00 0.00 0.00 81 1030.0
20210802120004 44 86 4.0 7.0 0.00 0.00 0.00 82 1030.0
20210802115904 44 85 3.0 7.0 0.00 0.00 0.00 82 1030.1
20210802115804 44 85 4.0 7.0 0.00 0.00 0.00 82 1030.1
20210802115704 45 84 3.0 6.0 0.00 0.00 0.00 82 1029.7
20210802115504 45 77 3.0 6.0 0.00 0.00 0.00 82 1029.8